EW5800 Weather Reports


Display with metric or nautical units.
time (UTC)temp
F
wind
direction
speed
MPH
gust
MPH
rain 1hr
in
rain 24hr
in
rain mn
in
humidity
%
barometer
mb
20260502163039 64 236 0.0 0.0 0.00 0.01 0.01 74 1017.1
20260502161533 61 160 0.0 0.0 0.00 0.01 0.01 79 1017.2
20260502151522 55 337 0.0 0.0 0.00 0.01 0.01 91 1017.2
20260502123007 52 335 0.0 0.0 0.00 0.00 0.00 91 1015.8
20260502121506 51 335 0.0 0.0 0.00 0.00 0.00 91 1015.7
20260502114504 51 335 0.0 0.0 0.00 0.00 0.00 91 1015.7
20260502113004 51 335 0.0 0.0 0.00 0.00 0.00 90 1015.7
20260502111501 51 334 0.0 0.0 0.00 0.00 0.00 90 1015.6
20260502110107 52 334 0.0 0.0 0.00 0.00 0.00 90 1015.6
20260502104558 52 334 0.0 0.0 0.00 0.00 0.00 89 1015.6
20260502103114 52 334 0.0 0.0 0.00 0.00 0.00 89 1015.6
20260502101605 53 334 0.0 0.0 0.00 0.00 0.00 88 1015.4
20260502071535 56 334 0.0 0.0 0.00 0.00 0.00 82 1014.8
20260502070029 57 333 0.0 0.0 0.00 0.00 0.00 82 1014.7
20260502064535 57 333 0.0 0.0 0.00 0.00 0.00 81 1014.5
20260502063029 57 333 0.0 0.0 0.00 0.00 0.00 79 1014.4
20260502061527 58 333 0.0 0.0 0.00 0.00 0.00 78 1014.2
20260502060027 58 34 0.0 0.0 0.00 0.00 0.00 77 1014.1
20260502054536 59 34 0.0 0.0 0.00 0.00 0.00 76 1014.0
20260502053029 59 34 0.0 0.0 0.00 0.00 0.00 75 1014.0
20260502051526 59 338 0.0 0.0 0.00 0.00 0.00 76 1013.8
20260502050025 59 342 0.0 0.0 0.00 0.00 0.00 78 1013.8
20260502044525 59 342 0.0 0.0 0.00 0.00 0.00 77 1013.7
20260502043028 60 342 0.0 0.0 0.00 0.00 0.00 76 1013.7
20260502041527 61 342 0.0 0.0 0.00 0.00 0.00 74 1013.6
20260502040023 62 40 0.0 0.0 0.00 0.00 0.00 71 1013.5
20260502034523 62 39 0.0 0.0 0.00 0.00 0.00 70 1013.4
20260502033024 64 39 0.0 1.0 0.00 0.00 0.00 66 1013.5
20260502031521 64 298 0.0 0.0 0.00 0.00 0.00 64 1013.4
20260502030021 65 75 0.0 0.0 0.00 0.00 0.00 63 1013.3
20260502024521 66 319 0.0 2.0 0.00 0.00 0.00 59 1013.3
20260502023021 67 318 0.0 1.0 0.00 0.00 0.00 60 1013.3
20260502021519 67 326 0.0 1.0 0.00 0.00 0.00 59 1013.4
20260502020019 67 275 0.0 0.0 0.00 0.00 0.00 57 1013.4
20260502014518 68 321 0.0 3.0 0.00 0.00 0.00 55 1013.5
20260502013017 68 308 0.0 6.0 0.00 0.00 0.00 53 1013.5
20260502011516 69 30 0.0 4.0 0.00 0.00 0.00 52 1013.5
20260502010015 70 83 0.0 4.0 0.00 0.00 0.00 51 1013.7
20260502004515 71 311 0.0 3.0 0.00 0.00 0.00 48 1013.6
20260502003014 72 95 0.0 1.0 0.00 0.00 0.00 47 1013.6
20260502001513 72 355 0.0 5.0 0.00 0.00 0.00 45 1013.6
20260502000011 73 22 0.0 4.0 0.00 0.00 0.00 44 1013.7
20260501234510 73 321 0.0 6.0 0.00 0.00 0.00 44 1013.8
20260501233009 74 314 0.0 3.0 0.00 0.00 0.00 46 1014.0
20260501231506 73 23 0.0 8.0 0.00 0.00 0.00 49 1014.1
20260501230008 73 69 0.0 7.0 0.00 0.00 0.00 49 1014.3
20260501224502 74 321 0.0 5.0 0.00 0.00 0.00 46 1014.5
20260501223112 74 274 0.0 3.0 0.00 0.00 0.00 48 1014.8
20260501221557 74 343 0.0 5.0 0.00 0.00 0.00 50 1014.8
20260501220055 73 350 0.0 7.0 0.00 0.00 0.00 52 1014.9
20260501214556 73 310 0.0 3.0 0.00 0.00 0.00 54 1015.1
20260501213104 73 354 2.0 9.0 0.00 0.00 0.00 52 1015.2
20260501211558 76 332 0.0 5.0 0.00 0.00 0.00 50 1015.3
20260501210051 74 68 0.0 7.0 0.00 0.00 0.00 52 1015.3
20260501204559 74 310 0.0 11.0 0.00 0.00 0.00 53 1015.4
20260501203100 76 230 0.0 4.0 0.00 0.00 0.00 48 1015.3
20260501201549 75 55 0.0 5.0 0.00 0.00 0.00 51 1015.3
20260501200047 76 28 0.0 3.0 0.00 0.00 0.00 47 1015.4
20260501194547 75 133 0.0 3.0 0.00 0.00 0.00 49 1015.5
20260501193048 76 165 0.0 1.0 0.00 0.00 0.00 48 1015.6
20260501191541 73 317 0.0 2.0 0.00 0.00 0.00 49 1015.7
20260501190041 73 328 0.0 3.0 0.00 0.00 0.00 48 1015.9
20260501184540 74 123 0.0 2.0 0.00 0.00 0.00 46 1015.9
20260501183038 71 75 0.0 2.0 0.00 0.00 0.00 48 1016.0
20260501181538 73 162 0.0 3.0 0.00 0.00 0.00 46 1016.2
20260501180035 71 200 0.0 3.0 0.00 0.00 0.00 49 1016.2
20260501174531 68 44 0.0 1.0 0.00 0.00 0.00 52 1016.2
20260501173035 68 145 0.0 0.0 0.00 0.00 0.00 50 1016.3
20260501171528 68 57 0.0 0.0 0.00 0.00 0.00 50 1016.2